This demonstration page uses our WeatherBlox Daily Observations layout. Learn more.

40.92945, -100.16068

Hourly Observations for December 20, 2019

Temp ( °F °C ) Dew Point ( °F °C ) Humidity (%) Winds ( mph kmh ) Pressure ( in mb ) Visibility ( mi km ) Precip ( " mm )
12:15 am 00:15 Clear 26 -3.3 23 -4.9 89 89 W 7 11 30.16 1021 10 16.0934 0 0
12:35 am 00:35 Clear 27 -2.6 24 -4.5 87 87 WNW 5 7 30.14 1021 10 16.0934 0 0
12:55 am 00:55 Clear 27 -2.9 23 -4.8 87 87 WNW 8 13 30.15 1021 10 16.0934 0 0
1:15 am 01:15 Clear 26 -3.3 24 -4.7 90 90 NW 10 17 30.16 1021 10 16.0934 0 0
1:35 am 01:35 Clear 26 -3.5 23 -5 89 89 NNW 8 13 30.16 1021 10 16.0934 0 0
1:55 am 01:55 Clear 25 -4 23 -5.2 91 91 NW 8 13 30.17 1022 10 16.0934 0 0
2:15 am 02:15 Clear 25 -3.7 23 -5.2 89 89 WNW 10 17 30.18 1022 10 16.0934 0 0
2:35 am 02:35 Clear 25 -4 22 -5.5 89 89 WNW 9 15 30.19 1022 10 16.0934 0 0
2:55 am 02:55 Clear 25 -3.9 22 -5.6 88 88 WNW 9 15 30.2 1023 10 16.0934 0 0
3:15 am 03:15 Clear 24 -4.5 21 -6 89 89 WNW 7 11 30.2 1023 10 16.0934 0 0
3:35 am 03:35 Clear 24 -4.5 21 -6 89 89 NW 9 15 30.21 1023 10 16.0934 0 0
3:55 am 03:55 Clear 24 -4.5 21 -6 89 89 WNW 6 9 30.22 1023 10 16.0934 0 0
4:15 am 04:15 Clear 24 -4.2 21 -6 87 87 WNW 7 11 30.23 1024 10 16.0934 0 0
4:35 am 04:35 Clear 24 -4.5 21 -6.2 88 88 WNW 10 17 30.23 1024 10 16.0934 0 0
4:55 am 04:55 Clear 23 -4.9 20 -6.5 89 89 WNW 8 13 30.25 1024 10 16.0934 0 0
5:15 am 05:15 Clear 23 -5.1 20 -6.9 87 87 WNW 9 15 30.25 1024 10 16.0934 0 0
5:35 am 05:35 Clear 23 -5.1 19 -7 87 87 WNW 7 11 30.26 1025 10 16.0934 0 0
5:55 am 05:55 Clear 23 -5.1 19 -7 87 87 WNW 10 17 30.26 1025 10 16.0934 0 0
6:15 am 06:15 Clear 23 -5.2 19 -7 87 87 WNW 14 22 30.28 1025 10 16.0934 0 0
6:35 am 06:35 Clear 23 -4.9 19 -7 85 85 WNW 8 13 30.28 1025 10 16.0934 0 0
6:55 am 06:55 Clear 23 -5 19 -7 86 86 WNW 10 17 30.28 1025 10 16.0934 0 0
7:15 am 07:15 Clear 22 -5.5 19 -7.3 87 87 W 5 7 30.28 1026 10 16.0934 0 0
7:35 am 07:35 Clear 22 -5.3 19 -7.2 87 87 WNW 7 11 30.29 1026 10 16.0934 0 0
7:55 am 07:55 Clear 23 -5.1 19 -7 87 87 Calm 30.29 1026 10 16.0934 0 0
8:15 am 08:15 Sunny 21 -6 19 -7.5 89 89 WNW 5 7 30.31 1026 10 16.0934 0 0
8:35 am 08:35 Sunny 22 -5.3 19 -7.1 87 87 NW 7 11 30.32 1027 10 16.0934 0 0
8:55 am 08:55 Sunny 24 -4.5 20 -6.6 85 85 NW 5 7 30.31 1027 10 16.0934 0 0
9:15 am 09:15 Sunny 26 -3.6 21 -6.1 83 83 WNW 8 13 30.31 1027 10 16.0934 0 0
9:35 am 09:35 Sunny 27 -2.7 22 -5.5 81 81 WNW 10 17 30.31 1027 10 16.0934 0 0
9:55 am 09:55 Sunny 29 -1.8 23 -5.1 78 78 WNW 8 13 30.32 1027 10 16.0934 0 0
10:15 am 10:15 Sunny 30 -1.1 24 -4.6 77 77 WNW 9 15 30.31 1026 10 16.0934 0 0
10:35 am 10:35 Sunny 31 -0.5 24 -4.6 74 74 WNW 6 9 30.3 1026 10 16.0934 0 0
10:55 am 10:55 Sunny 32 0.1 25 -3.8 75 75 WNW 8 13 30.31 1026 10 16.0934 0 0
11:15 am 11:15 Sunny 33 0.8 25 -3.7 72 72 WNW 8 13 30.3 1026 10 16.0934 0 0
11:35 am 11:35 Sunny 35 1.6 26 -3.4 70 70 WNW 8 13 30.28 1025 10 16.0934 0 0
11:55 am 11:55 Sunny 36 2.4 26 -3.3 66 66 WNW 7 11 30.27 1025 10 16.0934 0 0
12:15 pm 12:15 Sunny 38 3.2 27 -2.6 66 66 W 7 11 30.27 1025 10 16.0934 0 0
12:35 pm 12:35 Sunny 39 4 28 -2.2 64 64 WNW 9 15 30.25 1024 10 16.0934 0 0
12:55 pm 12:55 Sunny 40 4.5 28 -2 63 63 WNW 9 15 30.24 1024 10 16.0934 0 0
1:15 pm 13:15 Sunny 42 5.4 29 -1.7 61 61 WNW 8 13 30.22 1024 10 16.0934 0 0
1:35 pm 13:35 Sunny 43 6 29 -1.8 58 58 WNW 9 15 30.22 1023 10 16.0934 0 0
1:55 pm 13:55 Sunny 44 6.5 29 -1.9 55 55 WNW 8 13 30.21 1023 10 16.0934 0 0
2:15 pm 14:15 Sunny 45 7.1 30 -1.3 56 56 W 8 13 30.21 1023 10 16.0934 0 0
2:35 pm 14:35 Sunny 46 7.5 29 -1.6 53 53 Calm 30.18 1022 10 16.0934 0 0
2:55 pm 14:55 Sunny 46 8 28 -2.5 48 48 W 3 6 30.19 1022 10 16.0934 0 0
3:15 pm 15:15 Sunny 47 8.4 27 -2.8 46 46 Calm 30.19 1022 10 16.0934 0 0
3:35 pm 15:35 Sunny 47 8.5 27 -2.6 46 46 WNW 5 7 30.2 1023 10 16.0934 0 0
3:55 pm 15:55 Sunny 47 8.2 28 -2.1 49 49 WNW 3 6 30.21 1023 10 16.0934 0 0
4:15 pm 16:15 Sunny 47 8.1 28 -2.5 47 47 Calm 30.21 1023 10 16.0934 0 0
4:35 pm 16:35 Sunny 46 7.8 27 -2.6 48 48 Calm 30.21 1023 10 16.0934 0 0
4:55 pm 16:55 Sunny 45 7.4 26 -3.4 47 47 Calm 30.22 1023 10 16.0934 0 0
5:15 pm 17:15 Clear 41 5.2 26 -3.1 55 55 S 5 7 30.25 1024 10 16.0934 0 0
5:35 pm 17:35 Clear 40 4.2 26 -3.5 58 58 SSE 3 6 30.26 1025 10 16.0934 0 0
5:55 pm 17:55 Clear 37 2.7 26 -3.4 65 65 S 5 7 30.28 1025 10 16.0934 0 0
6:15 pm 18:15 Clear 35 1.7 26 -3.4 69 69 SSW 5 7 30.29 1026 10 16.0934 0 0
6:35 pm 18:35 Clear 32 0 26 -3.5 78 78 SW 5 7 30.31 1026 10 16.0934 0 0
6:55 pm 18:55 Clear 33 0.3 25 -4 73 73 S 3 6 30.3 1026 10 16.0934 0 0
7:15 pm 19:15 Clear 32 -0.1 25 -4.1 75 75 Calm 30.31 1026 10 16.0934 0 0
7:35 pm 19:35 Clear 32 0 24 -4.2 74 74 Calm 30.32 1027 10 16.0934 0 0
7:55 pm 19:55 Clear 32 -0.1 24 -4.2 74 74 Calm 30.33 1027 10 16.0934 0 0
8:15 pm 20:15 Clear 28 -2.1 26 -3.2 92 92 Calm 30.35 1028 10 16.0934 0 0
8:35 pm 20:35 Clear 28 -2.5 25 -4.1 89 89 NNW 3 6 30.35 1028 10 16.0934 0 0
8:55 pm 20:55 Clear 27 -2.6 24 -4.3 88 88 NNW 3 6 30.35 1028 10 16.0934 0 0
9:15 pm 21:15 Clear 27 -2.6 25 -3.7 92 92 Calm 30.35 1028 10 16.0934 0 0
9:35 pm 21:35 Clear 27 -2.6 26 -3.6 93 93 Calm 30.36 1028 10 16.0934 0 0
9:55 pm 21:55 Clear 27 -2.8 26 -3.6 94 94 Calm 30.37 1028 10 16.0934 0 0
10:15 pm 22:15 Clear 27 -3 24 -4.3 91 91 Calm 30.36 1028 10 16.0934 0 0
10:35 pm 22:35 Clear 26 -3.2 24 -4.3 92 92 Calm 30.36 1028 10 16.0934 0 0
10:55 pm 22:55 Clear 26 -3.4 24 -4.2 94 94 Calm 30.36 1028 10 16.0934 0 0
11:15 pm 23:15 Clear 26 -3.1 24 -4.4 91 91 Calm 30.36 1028 10 16.0934 0 0
11:35 pm 23:35 Clear 25 -4 23 -5 93 93 Calm 30.38 1029 10 16.0934 0 0
11:55 pm 23:55 Clear 25 -4 23 -5.1 92 92 Calm 30.38 1029 10 16.0934 0 0

Powered by AerisWeather